User: anonymous   Login
Location: Fort Wayne
(41.1310°N, 85.1290°W)
Time: 21:54:51
(UTC-04:00)
Language:

Meteor 2-10 Rocket - Orbit

View from above orbital plane
View from above orbital plane
View from above satellite
View from above satellite

Ground track
Ground track

The orbit data is extracted from the following two-line orbital elements,

1 14453U 83109B   16210.61969319  .00000035  00000-0  96710-5 0  9998
2 14453  81.1656  71.8101 0103957 279.9141  79.0315 14.24651999701454
Epoch (UTC): 28 July 2016 14:52:21
Eccentricity: 0.0103957
inclination: 81.1656°
perigee height: 735 km
apogee height: 884 km
right ascension of ascending node: 71.8101°
argument of perigee: 279.9141°
revolutions per day: 14.24651999
mean anomaly at epoch: 79.0315°
orbit number at epoch: 70145

The dashed part of the orbit path shows where the satellite is in the earth's shadow,  

DLR